Location: Austin
(30.3000°N, 97.7500°W)
Time: 12:32:21
(UTC-05:00)

PAYLOAD B - Pass Details

Date: 08 April 2026
Orbit: 847 x 870 km, 99.0° (Epoch: 11 April)

Event Time Altitude Azimuth Distance (km) Brightness Sun altitude
Exits shadow 21:51:38 63° 139° (SE) 942 4.1 -24.9°
Maximum altitude 21:52:28 78° 75° (ENE) 872 4.1 -25.1°
Drops below altitude 10° 21:57:57 10° 350° (N) 2,475 7.1 -26.1°
Sets 22:00:19 0° 349° (N) 3,412 7.9 -26.6°
